| time (UTC) | temp F | wind direction | speed MPH | gust MPH | rain 1hr in | rain 24hr in | rain mn in | humidity % | barometer mb |
| 20260510015002 | 65 | 199 | 0.0 | 2.0 | 0.00 | 0.24 | 0.24 | 86 | 1014.0 |
| 20260510014510 | 65 | 245 | 0.0 | 2.0 | 0.00 | 0.24 | 0.24 | 86 | 1014.1 |
| 20260510014003 | 65 | 233 | 0.0 | 3.0 | 0.00 | 0.24 | 0.24 | 85 | 1014.0 |
| 20260510013506 | 65 | 207 | 1.0 | 4.0 | 0.00 | 0.24 | 0.24 | 85 | 1013.9 |
| 20260510013006 | 66 | 215 | 1.0 | 7.0 | 0.00 | 0.24 | 0.24 | 85 | 1013.7 |
| 20260510012506 | 66 | 215 | 2.0 | 7.0 | 0.00 | 0.24 | 0.24 | 85 | 1013.7 |
| 20260510012003 | 66 | 212 | 3.0 | 6.0 | 0.00 | 0.24 | 0.24 | 85 | 1013.6 |
| 20260510011504 | 66 | 215 | 2.0 | 6.0 | 0.00 | 0.24 | 0.24 | 85 | 1013.3 |
| 20260510011003 | 66 | 213 | 1.0 | 7.0 | 0.00 | 0.24 | 0.24 | 85 | 1013.5 |
| 20260510010503 | 66 | 206 | 4.0 | 7.0 | 0.00 | 0.24 | 0.24 | 84 | 1013.6 |
| 20260510010004 | 67 | 230 | 3.0 | 6.0 | 0.00 | 0.24 | 0.24 | 84 | 1013.4 |
| 20260510005504 | 67 | 221 | 2.0 | 9.0 | 0.00 | 0.24 | 0.24 | 84 | 1013.1 |
| 20260510005004 | 67 | 186 | 3.0 | 9.0 | 0.00 | 0.24 | 0.24 | 84 | 1013.0 |
| 20260510004506 | 67 | 204 | 3.0 | 7.0 | 0.00 | 0.24 | 0.24 | 84 | 1013.1 |
| 20260510004003 | 67 | 174 | 2.0 | 7.0 | 0.00 | 0.24 | 0.24 | 84 | 1013.1 |
| 20260510003503 | 67 | 166 | 3.0 | 7.0 | 0.00 | 0.24 | 0.24 | 83 | 1013.1 |
| 20260510003009 | 68 | 219 | 3.0 | 7.0 | 0.00 | 0.24 | 0.24 | 83 | 1013.0 |
| 20260510002503 | 68 | 205 | 4.0 | 7.0 | 0.00 | 0.24 | 0.24 | 83 | 1013.0 |
| 20260510002004 | 68 | 229 | 1.0 | 5.0 | 0.00 | 0.24 | 0.24 | 83 | 1013.0 |
| 20260510001513 | 68 | 220 | 3.0 | 5.0 | 0.00 | 0.24 | 0.24 | 83 | 1013.0 |
| 20260510001004 | 68 | 245 | 0.0 | 3.0 | 0.00 | 0.24 | 0.24 | 82 | 1013.1 |
| 20260510000508 | 68 | 254 | 1.0 | 5.0 | 0.00 | 0.24 | 0.24 | 82 | 1013.1 |
| 20260510000010 | 68 | 242 | 1.0 | 5.0 | 0.00 | 0.24 | 0.24 | 82 | 1012.9 |
| 20260509235505 | 68 | 252 | 2.0 | 4.0 | 0.00 | 0.24 | 0.24 | 82 | 1013.0 |
| 20260509235005 | 69 | 253 | 1.0 | 4.0 | 0.00 | 0.24 | 0.24 | 81 | 1012.8 |
| 20260509234504 | 69 | 211 | 1.0 | 3.0 | 0.00 | 0.24 | 0.24 | 81 | 1012.6 |
| 20260509234006 | 69 | 209 | 1.0 | 3.0 | 0.00 | 0.24 | 0.24 | 81 | 1012.6 |
| 20260509233503 | 69 | 165 | 0.0 | 2.0 | 0.00 | 0.24 | 0.24 | 82 | 1012.4 |
| 20260509233004 | 69 | 165 | 0.0 | 2.0 | 0.00 | 0.24 | 0.24 | 81 | 1012.4 |
| 20260509232503 | 69 | 165 | 0.0 | 2.0 | 0.00 | 0.24 | 0.24 | 80 | 1012.4 |
| 20260509232007 | 69 | 165 | 0.0 | 2.0 | 0.00 | 0.24 | 0.24 | 80 | 1012.3 |
| 20260509231505 | 69 | 165 | 0.0 | 2.0 | 0.00 | 0.24 | 0.24 | 79 | 1012.4 |
| 20260509231011 | 69 | 198 | 1.0 | 2.0 | 0.00 | 0.24 | 0.24 | 79 | 1012.4 |
| 20260509230503 | 70 | 178 | 0.0 | 2.0 | 0.00 | 0.24 | 0.24 | 78 | 1012.5 |
| 20260509230018 | 70 | 163 | 1.0 | 2.0 | 0.00 | 0.24 | 0.24 | 78 | 1012.3 |
| 20260509225507 | 70 | 175 | 1.0 | 4.0 | 0.00 | 0.24 | 0.24 | 78 | 1012.2 |
| 20260509225004 | 70 | 190 | 1.0 | 5.0 | 0.00 | 0.24 | 0.24 | 78 | 1012.1 |
| 20260509224522 | 70 | 173 | 1.0 | 5.0 | 0.00 | 0.24 | 0.24 | 77 | 1012.1 |
| 20260509224004 | 70 | 182 | 1.0 | 4.0 | 0.00 | 0.24 | 0.24 | 77 | 1011.9 |
| 20260509223504 | 70 | 165 | 1.0 | 2.0 | 0.00 | 0.24 | 0.24 | 77 | 1012.0 |
| 20260509223004 | 71 | 178 | 0.0 | 2.0 | 0.00 | 0.24 | 0.24 | 77 | 1012.0 |
| 20260509222503 | 70 | 188 | 0.0 | 3.0 | 0.00 | 0.24 | 0.24 | 76 | 1011.9 |
| 20260509222006 | 70 | 172 | 1.0 | 4.0 | 0.00 | 0.24 | 0.24 | 76 | 1011.9 |
| 20260509221508 | 70 | 180 | 2.0 | 4.0 | 0.00 | 0.24 | 0.24 | 76 | 1011.8 |
| 20260509221005 | 70 | 191 | 1.0 | 2.0 | 0.00 | 0.24 | 0.24 | 76 | 1011.9 |
| 20260509220501 | 70 | 193 | 1.0 | 2.0 | 0.00 | 0.24 | 0.24 | 76 | 1011.8 |
| 20260509220006 | 71 | 181 | 0.0 | 2.0 | 0.00 | 0.24 | 0.24 | 76 | 1011.7 |
| 20260509215503 | 71 | 163 | 1.0 | 3.0 | 0.00 | 0.24 | 0.24 | 76 | 1011.7 |
| 20260509215002 | 71 | 166 | 0.0 | 3.0 | 0.00 | 0.24 | 0.24 | 76 | 1011.7 |
| 20260509214502 | 71 | 167 | 1.0 | 2.0 | 0.00 | 0.24 | 0.24 | 76 | 1011.7 |
| 20260509214003 | 71 | 181 | 1.0 | 2.0 | 0.00 | 0.24 | 0.24 | 76 | 1011.7 |
| 20260509213503 | 71 | 179 | 0.0 | 4.0 | 0.00 | 0.24 | 0.24 | 75 | 1011.8 |
| 20260509213016 | 71 | 180 | 1.0 | 4.0 | 0.00 | 0.24 | 0.24 | 75 | 1011.7 |
| 20260509212508 | 71 | 155 | 1.0 | 2.0 | 0.00 | 0.24 | 0.24 | 76 | 1011.7 |
| 20260509212002 | 71 | 98 | 0.0 | 2.0 | 0.00 | 0.24 | 0.24 | 75 | 1011.6 |
| 20260509211508 | 71 | 98 | 0.0 | 2.0 | 0.00 | 0.24 | 0.24 | 74 | 1011.8 |
| 20260509211001 | 71 | 98 | 0.0 | 2.0 | 0.00 | 0.24 | 0.24 | 75 | 1011.6 |
| 20260509210503 | 71 | 98 | 1.0 | 2.0 | 0.00 | 0.24 | 0.24 | 75 | 1011.4 |
| 20260509210003 | 71 | 274 | 0.0 | 2.0 | 0.00 | 0.24 | 0.24 | 74 | 1011.5 |
| 20260509205502 | 71 | 274 | 1.0 | 2.0 | 0.00 | 0.24 | 0.24 | 73 | 1011.5 |
| 20260509205002 | 71 | 264 | 1.0 | 2.0 | 0.00 | 0.24 | 0.24 | 73 | 1011.6 |
| 20260509204505 | 71 | 140 | 0.0 | 2.0 | 0.00 | 0.24 | 0.24 | 73 | 1011.7 |
| 20260509204002 | 71 | 140 | 0.0 | 2.0 | 0.00 | 0.24 | 0.24 | 73 | 1011.6 |
| 20260509203502 | 71 | 234 | 1.0 | 3.0 | 0.00 | 0.24 | 0.24 | 73 | 1011.6 |
| 20260509203004 | 71 | 234 | 1.0 | 4.0 | 0.00 | 0.24 | 0.24 | 73 | 1011.8 |
| 20260509202502 | 71 | 225 | 1.0 | 4.0 | 0.00 | 0.24 | 0.24 | 72 | 1011.8 |
| 20260509202004 | 71 | 144 | 0.0 | 2.0 | 0.00 | 0.24 | 0.24 | 74 | 1011.7 |
| 20260509201503 | 72 | 133 | 0.0 | 2.0 | 0.00 | 0.24 | 0.24 | 72 | 1011.7 |
| 20260509201006 | 72 | 133 | 1.0 | 2.0 | 0.00 | 0.24 | 0.24 | 74 | 1011.9 |
| 20260509200506 | 71 | 146 | 1.0 | 2.0 | 0.00 | 0.24 | 0.24 | 73 | 1011.9 |
| 20260509200003 | 71 | 122 | 1.0 | 3.0 | 0.00 | 0.24 | 0.24 | 73 | 1011.8 |
| 20260509195505 | 71 | 122 | 2.0 | 3.0 | 0.00 | 0.24 | 0.24 | 73 | 1011.7 |
| 20260509195004 | 71 | 165 | 0.0 | 4.0 | 0.00 | 0.24 | 0.24 | 74 | 1012.0 |
| 20260509194503 | 71 | 142 | 2.0 | 4.0 | 0.00 | 0.24 | 0.24 | 74 | 1011.8 |
| 20260509194004 | 71 | 170 | 1.0 | 2.0 | 0.00 | 0.24 | 0.24 | 72 | 1011.9 |
| 20260509193505 | 71 | 85 | 1.0 | 3.0 | 0.00 | 0.24 | 0.24 | 73 | 1012.0 |
| 20260509193003 | 71 | 79 | 1.0 | 3.0 | 0.00 | 0.24 | 0.24 | 73 | 1012.1 |
| 20260509192504 | 70 | 107 | 1.0 | 2.0 | 0.00 | 0.24 | 0.24 | 74 | 1012.0 |
| 20260509192002 | 70 | 180 | 0.0 | 2.0 | 0.00 | 0.24 | 0.24 | 73 | 1012.4 |
| 20260509191506 | 70 | 250 | 0.0 | 3.0 | 0.00 | 0.24 | 0.24 | 74 | 1012.4 |
| 20260509191006 | 70 | 238 | 2.0 | 3.0 | 0.00 | 0.24 | 0.24 | 73 | 1012.2 |
| 20260509190507 | 70 | 312 | 0.0 | 2.0 | 0.00 | 0.24 | 0.24 | 74 | 1012.0 |
| 20260509190006 | 70 | 311 | 1.0 | 2.0 | 0.00 | 0.24 | 0.24 | 75 | 1012.4 |
| 20260509185504 | 70 | 27 | 1.0 | 2.0 | 0.00 | 0.24 | 0.24 | 77 | 1012.3 |
| 20260509185004 | 69 | 360 | 1.0 | 3.0 | 0.00 | 0.24 | 0.24 | 77 | 1012.5 |
| 20260509184517 | 69 | 286 | 1.0 | 4.0 | 0.00 | 0.24 | 0.24 | 77 | 1012.6 |
| 20260509184002 | 69 | 275 | 2.0 | 4.0 | 0.00 | 0.24 | 0.24 | 77 | 1012.7 |
| 20260509183503 | 69 | 246 | 2.0 | 4.0 | 0.00 | 0.24 | 0.24 | 76 | 1012.7 |
| 20260509183004 | 69 | 301 | 2.0 | 3.0 | 0.00 | 0.24 | 0.24 | 78 | 1012.9 |
| 20260509182504 | 69 | 232 | 1.0 | 3.0 | 0.00 | 0.24 | 0.24 | 79 | 1012.9 |
| 20260509182004 | 69 | 177 | 1.0 | 3.0 | 0.00 | 0.24 | 0.24 | 79 | 1012.9 |
| 20260509181502 | 68 | 340 | 0.0 | 3.0 | 0.00 | 0.24 | 0.24 | 80 | 1012.9 |
| 20260509181004 | 68 | 309 | 2.0 | 8.0 | 0.00 | 0.24 | 0.24 | 79 | 1012.8 |
| 20260509180504 | 68 | 30 | 2.0 | 8.0 | 0.00 | 0.24 | 0.24 | 80 | 1012.7 |
| 20260509180004 | 68 | 311 | 3.0 | 7.0 | 0.00 | 0.24 | 0.24 | 81 | 1012.7 |
| 20260509175506 | 68 | 309 | 3.0 | 8.0 | 0.00 | 0.24 | 0.24 | 81 | 1012.7 |
| 20260509175004 | 67 | 5 | 3.0 | 8.0 | 0.00 | 0.24 | 0.24 | 82 | 1012.6 |
| 20260509174520 | 67 | 28 | 2.0 | 7.0 | 0.00 | 0.24 | 0.24 | 82 | 1012.7 |
| 20260509174004 | 67 | 319 | 4.0 | 8.0 | 0.00 | 0.24 | 0.24 | 82 | 1012.9 |
| 20260509173503 | 66 | 22 | 3.0 | 8.0 | 0.00 | 0.24 | 0.24 | 83 | 1013.0 |
| 20260509173017 | 66 | 325 | 4.0 | 8.0 | 0.00 | 0.24 | 0.24 | 83 | 1013.0 |
| 20260509172504 | 66 | 319 | 4.0 | 7.0 | 0.00 | 0.24 | 0.24 | 83 | 1013.0 |
| 20260509172003 | 66 | 285 | 4.0 | 9.0 | 0.00 | 0.24 | 0.24 | 83 | 1013.0 |
| 20260509171504 | 66 | 300 | 5.0 | 9.0 | 0.00 | 0.24 | 0.24 | 83 | 1013.2 |
| 20260509171003 | 66 | 275 | 4.0 | 8.0 | 0.00 | 0.24 | 0.24 | 84 | 1013.2 |
| 20260509170504 | 66 | 337 | 3.0 | 8.0 | 0.00 | 0.24 | 0.24 | 84 | 1013.3 |
| 20260509170009 | 66 | 329 | 2.0 | 8.0 | 0.00 | 0.24 | 0.24 | 84 | 1013.2 |
| 20260509165503 | 66 | 276 | 4.0 | 9.0 | 0.00 | 0.24 | 0.24 | 85 | 1013.3 |
| 20260509165003 | 66 | 281 | 2.0 | 9.0 | 0.00 | 0.24 | 0.24 | 85 | 1013.3 |
| 20260509164510 | 66 | 300 | 3.0 | 8.0 | 0.00 | 0.24 | 0.24 | 85 | 1013.3 |
| 20260509164003 | 65 | 267 | 6.0 | 8.0 | 0.00 | 0.24 | 0.24 | 85 | 1013.2 |
| 20260509163507 | 65 | 269 | 6.0 | 8.0 | 0.00 | 0.24 | 0.24 | 86 | 1013.3 |
| 20260509163011 | 65 | 241 | 2.0 | 8.0 | 0.00 | 0.24 | 0.24 | 87 | 1013.2 |
| 20260509162510 | 65 | 277 | 5.0 | 8.0 | 0.00 | 0.24 | 0.24 | 87 | 1013.3 |
| 20260509162002 | 64 | 286 | 3.0 | 6.0 | 0.00 | 0.24 | 0.24 | 88 | 1013.3 |
| 20260509161508 | 64 | 292 | 2.0 | 7.0 | 0.00 | 0.24 | 0.24 | 87 | 1013.4 |
| 20260509161008 | 63 | 264 | 3.0 | 7.0 | 0.00 | 0.24 | 0.24 | 88 | 1013.4 |
| 20260509160503 | 63 | 281 | 5.0 | 9.0 | 0.00 | 0.24 | 0.24 | 88 | 1013.3 |
| 20260509160003 | 63 | 269 | 6.0 | 9.0 | 0.00 | 0.24 | 0.24 | 88 | 1013.3 |
| 20260509155502 | 63 | 250 | 5.0 | 7.0 | 0.00 | 0.24 | 0.24 | 88 | 1013.3 |
| 20260509155003 | 63 | 248 | 3.0 | 7.0 | 0.00 | 0.24 | 0.24 | 89 | 1013.2 |
| 20260509154508 | 63 | 264 | 4.0 | 7.0 | 0.00 | 0.24 | 0.24 | 89 | 1013.3 |
| 20260509154004 | 62 | 277 | 2.0 | 5.0 | 0.00 | 0.24 | 0.24 | 89 | 1013.4 |
| 20260509153504 | 62 | 250 | 3.0 | 8.0 | 0.00 | 0.24 | 0.24 | 89 | 1013.2 |
| 20260509153017 | 62 | 249 | 4.0 | 8.0 | 0.00 | 0.24 | 0.24 | 89 | 1013.2 |
| 20260509152503 | 62 | 257 | 4.0 | 8.0 | 0.00 | 0.24 | 0.24 | 89 | 1013.4 |
| 20260509152007 | 62 | 221 | 3.0 | 6.0 | 0.00 | 0.24 | 0.24 | 89 | 1013.4 |
| 20260509151516 | 62 | 232 | 3.0 | 8.0 | 0.00 | 0.24 | 0.24 | 90 | 1013.2 |
| 20260509151003 | 62 | 261 | 3.0 | 8.0 | 0.00 | 0.24 | 0.24 | 90 | 1013.6 |
| 20260509150510 | 62 | 263 | 2.0 | 8.0 | 0.00 | 0.24 | 0.24 | 90 | 1013.6 |
| 20260509150014 | 62 | 253 | 4.0 | 8.0 | 0.00 | 0.24 | 0.24 | 90 | 1013.6 |
| 20260509145504 | 62 | 205 | 5.0 | 9.0 | 0.00 | 0.24 | 0.24 | 90 | 1013.2 |
| 20260509145004 | 62 | 204 | 1.0 | 9.0 | 0.00 | 0.24 | 0.24 | 90 | 1013.0 |
| 20260509144507 | 62 | 248 | 5.0 | 9.0 | 0.00 | 0.24 | 0.24 | 90 | 1013.2 |
| 20260509144003 | 62 | 252 | 5.0 | 11.0 | 0.00 | 0.24 | 0.24 | 90 | 1013.5 |
| 20260509143501 | 62 | 257 | 6.0 | 11.0 | 0.00 | 0.24 | 0.24 | 90 | 1013.0 |
| 20260509143006 | 62 | 229 | 3.0 | 11.0 | 0.00 | 0.24 | 0.24 | 90 | 1013.0 |
| 20260509142501 | 62 | 237 | 4.0 | 11.0 | 0.00 | 0.24 | 0.24 | 90 | 1013.2 |
| 20260509142003 | 62 | 222 | 5.0 | 11.0 | 0.00 | 0.24 | 0.24 | 90 | 1013.3 |
| 20260509141502 | 62 | 247 | 6.0 | 12.0 | 0.00 | 0.24 | 0.24 | 90 | 1013.5 |
| 20260509141004 | 62 | 265 | 6.0 | 12.0 | 0.00 | 0.24 | 0.24 | 90 | 1013.5 |
| 20260509140501 | 62 | 214 | 5.0 | 12.0 | 0.00 | 0.24 | 0.24 | 90 | 1013.3 |
| 20260509140008 | 62 | 241 | 7.0 | 12.0 | 0.00 | 0.24 | 0.24 | 90 | 1013.9 |
| 20260509135502 | 62 | 272 | 6.0 | 10.0 | 0.00 | 0.24 | 0.24 | 90 | 1014.0 |
| 20260509135006 | 62 | 244 | 4.0 | 8.0 | 0.00 | 0.24 | 0.24 | 90 | 1013.4 |
| 20260509134504 | 62 | 229 | 3.0 | 11.0 | 0.00 | 0.24 | 0.24 | 90 | 1013.5 |
| 20260509134002 | 62 | 229 | 4.0 | 11.0 | 0.00 | 0.24 | 0.24 | 90 | 1013.5 |
| 20260509133503 | 62 | 230 | 7.0 | 10.0 | 0.00 | 0.24 | 0.24 | 90 | 1013.5 |
| 20260509133005 | 62 | 248 | 4.0 | 8.0 | 0.00 | 0.24 | 0.24 | 90 | 1013.4 |
| 20260509132504 | 61 | 259 | 4.0 | 9.0 | 0.00 | 0.24 | 0.24 | 90 | 1013.1 |
| 20260509132003 | 61 | 284 | 4.0 | 9.0 | 0.00 | 0.24 | 0.24 | 90 | 1013.2 |
| 20260509131503 | 61 | 267 | 5.0 | 11.0 | 0.00 | 0.24 | 0.24 | 90 | 1013.2 |
| 20260509131001 | 61 | 272 | 3.0 | 11.0 | 0.00 | 0.24 | 0.24 | 90 | 1013.2 |
| 20260509130503 | 61 | 273 | 2.0 | 12.0 | 0.00 | 0.24 | 0.24 | 90 | 1013.1 |
| 20260509130003 | 61 | 268 | 7.0 | 12.0 | 0.00 | 0.24 | 0.24 | 90 | 1013.1 |
| 20260509125502 | 61 | 236 | 7.0 | 11.0 | 0.00 | 0.24 | 0.24 | 90 | 1013.1 |
| 20260509125002 | 61 | 261 | 3.0 | 7.0 | 0.01 | 0.24 | 0.24 | 90 | 1013.1 |
| 20260509124502 | 61 | 281 | 4.0 | 8.0 | 0.01 | 0.24 | 0.24 | 90 | 1013.0 |
| 20260509124006 | 61 | 262 | 6.0 | 8.0 | 0.01 | 0.24 | 0.24 | 90 | 1013.0 |
| 20260509123504 | 61 | 269 | 3.0 | 7.0 | 0.02 | 0.24 | 0.24 | 90 | 1012.9 |
| 20260509123008 | 61 | 294 | 1.0 | 6.0 | 0.02 | 0.24 | 0.24 | 90 | 1012.8 |
| 20260509122504 | 61 | 239 | 0.0 | 2.0 | 0.02 | 0.24 | 0.24 | 90 | 1012.8 |
| 20260509122001 | 60 | 254 | 1.0 | 4.0 | 0.03 | 0.24 | 0.24 | 90 | 1013.0 |
| 20260509121512 | 61 | 252 | 2.0 | 4.0 | 0.03 | 0.24 | 0.24 | 90 | 1013.0 |
| 20260509121004 | 60 | 211 | 2.0 | 7.0 | 0.03 | 0.24 | 0.24 | 90 | 1013.0 |
| 20260509120504 | 60 | 250 | 1.0 | 8.0 | 0.03 | 0.24 | 0.24 | 90 | 1013.0 |
| 20260509120003 | 60 | 254 | 3.0 | 8.0 | 0.03 | 0.24 | 0.24 | 90 | 1012.8 |
| 20260509115504 | 60 | 259 | 1.0 | 3.0 | 0.04 | 0.24 | 0.24 | 90 | 1012.5 |
| 20260509115003 | 60 | 253 | 0.0 | 3.0 | 0.03 | 0.23 | 0.23 | 90 | 1012.0 |
| 20260509114503 | 60 | 284 | 2.0 | 3.0 | 0.04 | 0.23 | 0.23 | 90 | 1012.1 |
| 20260509114002 | 60 | 251 | 0.0 | 3.0 | 0.04 | 0.23 | 0.23 | 90 | 1012.0 |
| 20260509113504 | 60 | 249 | 1.0 | 4.0 | 0.03 | 0.22 | 0.22 | 90 | 1011.9 |
| 20260509113004 | 60 | 263 | 2.0 | 6.0 | 0.03 | 0.22 | 0.22 | 90 | 1011.8 |
| 20260509112503 | 60 | 232 | 1.0 | 7.0 | 0.03 | 0.22 | 0.22 | 90 | 1011.8 |
| 20260509112004 | 60 | 240 | 2.0 | 10.0 | 0.02 | 0.21 | 0.21 | 90 | 1012.0 |
| 20260509111503 | 60 | 240 | 4.0 | 10.0 | 0.02 | 0.21 | 0.21 | 90 | 1012.5 |
| 20260509111004 | 60 | 240 | 4.0 | 8.0 | 0.02 | 0.21 | 0.21 | 90 | 1012.8 |
| 20260509110505 | 60 | 239 | 3.0 | 8.0 | 0.02 | 0.21 | 0.21 | 90 | 1012.4 |
| 20260509110004 | 60 | 234 | 4.0 | 11.0 | 0.03 | 0.21 | 0.21 | 90 | 1012.3 |
| 20260509105504 | 60 | 254 | 4.0 | 11.0 | 0.02 | 0.20 | 0.20 | 90 | 1012.2 |
| 20260509105003 | 60 | 254 | 4.0 | 11.0 | 0.02 | 0.20 | 0.20 | 90 | 1012.1 |
| 20260509104508 | 60 | 244 | 6.0 | 11.0 | 0.01 | 0.19 | 0.19 | 90 | 1011.8 |
| 20260509104003 | 60 | 248 | 6.0 | 11.0 | 0.01 | 0.19 | 0.19 | 90 | 1012.3 |
| 20260509103502 | 60 | 261 | 5.0 | 11.0 | 0.01 | 0.19 | 0.19 | 90 | 1012.2 |
| 20260509103003 | 60 | 221 | 5.0 | 10.0 | 0.02 | 0.19 | 0.19 | 90 | 1012.3 |
| 20260509102502 | 60 | 231 | 7.0 | 10.0 | 0.02 | 0.19 | 0.19 | 90 | 1012.3 |
| 20260509102003 | 60 | 248 | 6.0 | 9.0 | 0.03 | 0.19 | 0.19 | 90 | 1012.3 |
| 20260509101510 | 60 | 254 | 6.0 | 9.0 | 0.05 | 0.19 | 0.19 | 90 | 1012.1 |
| 20260509101004 | 60 | 232 | 4.0 | 10.0 | 0.07 | 0.19 | 0.19 | 90 | 1011.9 |
| 20260509100503 | 60 | 259 | 5.0 | 10.0 | 0.09 | 0.19 | 0.19 | 90 | 1011.8 |
| 20260509100011 | 60 | 241 | 4.0 | 7.0 | 0.10 | 0.18 | 0.18 | 90 | 1011.5 |
| 20260509095503 | 59 | 238 | 2.0 | 5.0 | 0.11 | 0.18 | 0.18 | 90 | 1011.1 |
| 20260509095008 | 59 | 242 | 3.0 | 7.0 | 0.12 | 0.18 | 0.18 | 90 | 1011.2 |
| 20260509094510 | 59 | 236 | 1.0 | 7.0 | 0.15 | 0.18 | 0.18 | 90 | 1011.0 |
| 20260509094004 | 59 | 184 | 4.0 | 7.0 | 0.16 | 0.18 | 0.18 | 90 | 1010.9 |
| 20260509093507 | 59 | 217 | 1.0 | 7.0 | 0.17 | 0.18 | 0.18 | 90 | 1011.0 |
| 20260509093003 | 59 | 276 | 3.0 | 13.0 | 0.16 | 0.17 | 0.17 | 90 | 1011.1 |
| 20260509092503 | 58 | 223 | 5.0 | 13.0 | 0.17 | 0.17 | 0.17 | 89 | 1010.6 |
| 20260509092002 | 58 | 110 | 3.0 | 12.0 | 0.16 | 0.16 | 0.16 | 89 | 1010.8 |
| 20260509091507 | 58 | 187 | 6.0 | 11.0 | 0.14 | 0.14 | 0.14 | 89 | 1011.1 |
| 20260509091004 | 58 | 185 | 4.0 | 10.0 | 0.12 | 0.12 | 0.12 | 89 | 1011.8 |
| 20260509090504 | 59 | 146 | 1.0 | 4.0 | 0.10 | 0.10 | 0.10 | 89 | 1012.2 |
| 20260509090005 | 59 | 213 | 1.0 | 2.0 | 0.08 | 0.08 | 0.08 | 89 | 1012.4 |
| 20260509085503 | 59 | 213 | 0.0 | 2.0 | 0.07 | 0.07 | 0.07 | 89 | 1012.5 |
| 20260509085003 | 59 | 213 | 1.0 | 2.0 | 0.06 | 0.06 | 0.06 | 89 | 1012.7 |
| 20260509084515 | 59 | 267 | 1.0 | 3.0 | 0.03 | 0.03 | 0.03 | 90 | 1012.8 |
| 20260509084008 | 59 | 267 | 0.0 | 3.0 | 0.02 | 0.02 | 0.02 | 90 | 1012.8 |
| 20260509083503 | 59 | 274 | 0.0 | 8.0 | 0.01 | 0.01 | 0.01 | 90 | 1012.9 |
| 20260509083031 | 59 | 295 | 1.0 | 8.0 | 0.01 | 0.01 | 0.01 | 90 | 1013.0 |
| 20260509082503 | 59 | 249 | 3.0 | 8.0 | 0.00 | 0.00 | 0.00 | 90 | 1013.2 |
| 20260509082007 | 58 | 254 | 5.0 | 8.0 | 0.00 | 0.00 | 0.00 | 90 | 1013.3 |
| 20260509081517 | 58 | 288 | 3.0 | 6.0 | 0.00 | 0.00 | 0.00 | 90 | 1013.2 |
| 20260509081005 | 58 | 274 | 4.0 | 6.0 | 0.00 | 0.00 | 0.00 | 90 | 1013.1 |
| 20260509080507 | 58 | 277 | 2.0 | 5.0 | 0.00 | 0.00 | 0.00 | 90 | 1013.0 |
| 20260509080008 | 58 | 252 | 2.0 | 4.0 | 0.00 | 0.00 | 0.00 | 90 | 1012.9 |
| 20260509075502 | 57 | 284 | 2.0 | 3.0 | 0.00 | 0.00 | 0.00 | 90 | 1012.8 |
| 20260509075004 | 56 | 263 | 2.0 | 3.0 | 0.00 | 0.00 | 0.00 | 90 | 1012.7 |
| 20260509074513 | 56 | 256 | 2.0 | 3.0 | 0.00 | 0.00 | 0.00 | 90 | 1012.5 |
| 20260509074003 | 56 | 263 | 0.0 | 0.0 | 0.00 | 0.00 | 0.00 | 90 | 1012.2 |
| 20260509073504 | 56 | 263 | 0.0 | 0.0 | 0.00 | 0.00 | 0.00 | 90 | 1012.1 |
| 20260509073010 | 55 | 232 | 0.0 | 0.0 | 0.00 | 0.00 | 0.00 | 89 | 1011.9 |
| 20260509072509 | 55 | 232 | 0.0 | 0.0 | 0.00 | 0.00 | 0.00 | 89 | 1011.6 |
| 20260509072005 | 54 | 232 | 0.0 | 0.0 | 0.00 | 0.00 | 0.00 | 89 | 1011.7 |
| 20260509071508 | 55 | 232 | 0.0 | 0.0 | 0.00 | 0.00 | 0.00 | 89 | 1011.6 |
| 20260509071005 | 55 | 232 | 0.0 | 0.0 | 0.00 | 0.00 | 0.00 | 88 | 1011.7 |
| 20260509070505 | 55 | 232 | 0.0 | 0.0 | 0.00 | 0.00 | 0.00 | 88 | 1011.8 |
| 20260509070025 | 55 | 232 | 0.0 | 0.0 | 0.00 | 0.00 | 0.00 | 88 | 1011.8 |
| 20260509065502 | 55 | 232 | 0.0 | 0.0 | 0.00 | 0.00 | 0.00 | 88 | 1012.1 |
| 20260509065003 | 55 | 232 | 0.0 | 0.0 | 0.00 | 0.00 | 0.00 | 89 | 1012.2 |
| 20260509064508 | 55 | 232 | 0.0 | 0.0 | 0.00 | 0.00 | 0.00 | 88 | 1012.4 |
| 20260509064004 | 55 | 232 | 0.0 | 0.0 | 0.00 | 0.00 | 0.00 | 88 | 1012.4 |
| 20260509063505 | 55 | 232 | 0.0 | 0.0 | 0.00 | 0.00 | 0.00 | 88 | 1012.3 |
| 20260509063020 | 55 | 232 | 0.0 | 0.0 | 0.00 | 0.00 | 0.00 | 88 | 1012.3 |
| 20260509062504 | 55 | 232 | 0.0 | 0.0 | 0.00 | 0.00 | 0.00 | 89 | 1012.3 |
| 20260509062010 | 55 | 231 | 0.0 | 0.0 | 0.00 | 0.00 | 0.00 | 89 | 1012.3 |
| 20260509061521 | 55 | 232 | 0.0 | 0.0 | 0.00 | 0.00 | 0.00 | 88 | 1012.0 |
| 20260509061004 | 55 | 232 | 0.0 | 0.0 | 0.00 | 0.00 | 0.00 | 88 | 1012.3 |
| 20260509060507 | 55 | 232 | 0.0 | 0.0 | 0.00 | 0.00 | 0.00 | 88 | 1012.3 |
| 20260509060017 | 55 | 231 | 0.0 | 0.0 | 0.00 | 0.00 | 0.00 | 88 | 1012.5 |
| 20260509055505 | 56 | 231 | 0.0 | 0.0 | 0.00 | 0.00 | 0.00 | 88 | 1012.4 |
| 20260509055007 | 56 | 232 | 0.0 | 2.0 | 0.00 | 0.00 | 0.00 | 88 | 1012.5 |
| 20260509054514 | 56 | 232 | 0.0 | 2.0 | 0.00 | 0.00 | 0.00 | 88 | 1012.7 |
| 20260509054002 | 56 | 231 | 0.0 | 1.0 | 0.00 | 0.00 | 0.00 | 88 | 1013.0 |
| 20260509053503 | 56 | 232 | 0.0 | 2.0 | 0.00 | 0.00 | 0.00 | 88 | 1013.0 |
| 20260509053013 | 56 | 231 | 1.0 | 2.0 | 0.00 | 0.00 | 0.00 | 88 | 1013.0 |
| 20260509052503 | 56 | 272 | 0.0 | 2.0 | 0.00 | 0.00 | 0.00 | 89 | 1013.0 |
| 20260509052004 | 56 | 272 | 0.0 | 2.0 | 0.00 | 0.00 | 0.00 | 88 | 1013.0 |
| 20260509051503 | 56 | 272 | 1.0 | 2.0 | 0.00 | 0.00 | 0.00 | 89 | 1012.9 |
| 20260509051002 | 56 | 137 | 0.0 | 4.0 | 0.00 | 0.00 | 0.00 | 88 | 1012.7 |
| 20260509050502 | 56 | 124 | 0.0 | 4.0 | 0.00 | 0.00 | 0.00 | 88 | 1012.5 |
| 20260509050003 | 56 | 151 | 1.0 | 4.0 | 0.00 | 0.00 | 0.00 | 88 | 1012.5 |
| 20260509045503 | 56 | 195 | 1.0 | 4.0 | 0.00 | 0.00 | 0.00 | 88 | 1012.7 |
| 20260509045004 | 56 | 174 | 1.0 | 5.0 | 0.00 | 0.00 | 0.00 | 88 | 1012.6 |
| 20260509044503 | 56 | 151 | 2.0 | 5.0 | 0.00 | 0.00 | 0.00 | 87 | 1012.6 |
| 20260509044003 | 56 | 182 | 1.0 | 2.0 | 0.00 | 0.00 | 0.00 | 87 | 1012.9 |
| 20260509043504 | 56 | 173 | 0.0 | 0.0 | 0.00 | 0.00 | 0.00 | 87 | 1012.9 |
| 20260509043002 | 56 | 173 | 0.0 | 0.0 | 0.00 | 0.00 | 0.00 | 87 | 1012.9 |
| 20260509042504 | 56 | 175 | 0.0 | 0.0 | 0.00 | 0.00 | 0.00 | 87 | 1012.9 |
| 20260509042008 | 56 | 175 | 0.0 | 0.0 | 0.00 | 0.00 | 0.00 | 87 | 1012.9 |
| 20260509041504 | 56 | 169 | 0.0 | 0.0 | 0.00 | 0.00 | 0.00 | 87 | 1012.9 |
| 20260509041004 | 56 | 159 | 0.0 | 0.0 | 0.00 | 0.00 | 0.00 | 87 | 1012.9 |
| 20260509040502 | 56 | 173 | 0.0 | 1.0 | 0.00 | 0.00 | 0.00 | 87 | 1012.9 |
| 20260509040004 | 56 | 145 | 0.0 | 3.0 | 0.00 | 0.00 | 0.00 | 87 | 1012.7 |
| 20260509035504 | 56 | 144 | 0.0 | 3.0 | 0.00 | 0.00 | 0.00 | 87 | 1012.5 |
| 20260509035004 | 56 | 136 | 1.0 | 2.0 | 0.00 | 0.00 | 0.00 | 87 | 1012.7 |
| 20260509034504 | 56 | 153 | 1.0 | 2.0 | 0.00 | 0.00 | 0.00 | 87 | 1012.9 |
| 20260509034003 | 56 | 165 | 0.0 | 3.0 | 0.00 | 0.00 | 0.00 | 87 | 1012.9 |
| 20260509033503 | 56 | 179 | 1.0 | 3.0 | 0.00 | 0.00 | 0.00 | 87 | 1012.8 |
| 20260509033006 | 57 | 182 | 0.0 | 3.0 | 0.00 | 0.00 | 0.00 | 87 | 1013.0 |
| 20260509032507 | 57 | 147 | 1.0 | 5.0 | 0.00 | 0.00 | 0.00 | 86 | 1013.0 |
| 20260509032002 | 57 | 158 | 2.0 | 5.0 | 0.00 | 0.00 | 0.00 | 86 | 1013.1 |
| 20260509031511 | 57 | 134 | 1.0 | 4.0 | 0.00 | 0.00 | 0.00 | 86 | 1013.3 |
| 20260509031004 | 57 | 157 | 1.0 | 2.0 | 0.00 | 0.00 | 0.00 | 86 | 1013.2 |
| 20260509030511 | 57 | 140 | 0.0 | 3.0 | 0.00 | 0.00 | 0.00 | 86 | 1013.2 |
| 20260509030012 | 57 | 124 | 0.0 | 3.0 | 0.00 | 0.00 | 0.00 | 86 | 1013.1 |
| 20260509025503 | 57 | 136 | 2.0 | 3.0 | 0.00 | 0.00 | 0.00 | 86 | 1012.9 |
| 20260509025002 | 57 | 139 | 1.0 | 2.0 | 0.00 | 0.00 | 0.00 | 86 | 1013.2 |
| 20260509024507 | 57 | 139 | 1.0 | 3.0 | 0.00 | 0.00 | 0.00 | 86 | 1013.1 |
| 20260509024003 | 57 | 123 | 2.0 | 3.0 | 0.00 | 0.00 | 0.00 | 86 | 1013.0 |
| 20260509023504 | 57 | 123 | 2.0 | 3.0 | 0.00 | 0.00 | 0.00 | 86 | 1012.9 |
| 20260509023003 | 57 | 150 | 1.0 | 3.0 | 0.00 | 0.00 | 0.00 | 86 | 1012.9 |
| 20260509022504 | 57 | 116 | 1.0 | 3.0 | 0.00 | 0.00 | 0.00 | 85 | 1012.7 |
| 20260509022004 | 57 | 128 | 1.0 | 3.0 | 0.00 | 0.00 | 0.00 | 85 | 1012.8 |
| 20260509021505 | 57 | 139 | 1.0 | 3.0 | 0.00 | 0.00 | 0.00 | 85 | 1012.7 |
| 20260509021004 | 57 | 108 | 2.0 | 3.0 | 0.00 | 0.00 | 0.00 | 85 | 1012.7 |
| 20260509020503 | 58 | 109 | 2.0 | 3.0 | 0.00 | 0.00 | 0.00 | 85 | 1012.7 |
| 20260509020010 | 58 | 110 | 1.0 | 2.0 | 0.00 | 0.00 | 0.00 | 84 | 1012.8 |
| 20260509015504 | 58 | 121 | 1.0 | 2.0 | 0.00 | 0.00 | 0.00 | 84 | 1012.7 |